Regional Weather Roundup
Issued by NWS

Home | Current Version | Previous Version | Text Only | Print | Product List | Glossary Off
Versions: 1 2 3 4 5 6 7 8 9 10 11 12 13 14 15 16 17 18 19 20 21 22 23 24 25 26 27 28

000
ASUS45 KSLC 240710
RWRUT

UTAH REGIONAL WEATHER ROUNDUP
NATIONAL WEATHER SERVICE SALT LAKE CITY UT
1200 AM MST FRI FEB 24 2017

UTZ001>011-023>025-240800-

NORTHERN UTAH

CITY           SKY/WX    TMP DP  RH WIND       PRES   REMARKS
BRIGHAM CITY     N/A     28  24  85 CALM      29.92R
HILL AFB       LGT SNOW  23  21  93 CALM      29.89S FOG
LOGAN          LGT SNOW  27  23  85 SW3       29.90R FOG
OGDEN          LGT SNOW  24  23  96 SW3       29.90R FOG
SALT LAKE CITY CLOUDY    27  24  89 NW10      29.92R WCI  17
TOOELE VALLEY  CLOUDY    30  21  69 W3        29.93R
WENDOVER       CLOUDY    28   9  43 NW14G20   29.94R WCI  17
HEBER CITY     MOCLDY    18  12  79 CALM      29.84R
WEST JORDAN    CLOUDY    29  29 100 N5        29.92R WCI  24

$$

UTZ011>015-024>027-240800-

CENTRAL/NORTHEAST UTAH

CITY           SKY/WX    TMP DP  RH WIND       PRES   REMARKS
PROVO AIRPORT  CLOUDY    28  21  75 NW10      29.92R WCI  19
MOAB/CANYONLAN PTCLDY    29  15  56 W9        29.82R WCI  20
DELTA          CLOUDY    25  25 100 NE5       29.92R VSB 1/2 WCI  19
PRICE          PTCLDY    23  14  68 NE5       29.80R WCI  17
ROOSEVELT      LGT SNOW  27  23  86 CALM      29.82S
VERNAL         CLOUDY    23  21  92 N3        29.80R

$$

UTZ013>016-019>022-027-240800-

SOUTHERN UTAH

CITY           SKY/WX    TMP DP  RH WIND       PRES   REMARKS
BRYCE CANYON   CLEAR     14   8  77 W7        29.82S WCI   4
CEDAR CITY     CLOUDY    25  14  63 S3        29.87S
MILFORD        MOCLDY    23  20  88 CALM      29.91R
ST GEORGE      PTSUNNY   40  19  43 W8        29.95R WCI  34
HANKSVILLE     MOCLDY    28  10  47 W3        29.87R
BLANDING       MOCLDY    26  17  68 W5        29.88S WCI  20

$$

REGIONAL REPORTS     COLORADO/ARIZONA

CITY           SKY/WX    TMP DP  RH WIND       PRES   REMARKS
CRAIG, CO      FLURRIES  22  16  78 W10       29.76R WCI  11
GRAND JUNCTION CLOUDY    28  24  85 N6        29.81R WCI  22
RIFLE, CO      PTCLDY    25  24  96 CALM      29.80R
MONTROSE, CO   CLOUDY    23  12  62 E6        29.82R WCI  16
CORTEZ, CO     CLOUDY    23  14  68 E5        29.82R WCI  17
COLORADO CITY    N/A     30  18  59 CALM      29.93S
PAGE, AZ       MOCLDY    37   6  27 VRB3      29.89R
GRAND CANYON   CLEAR     22   8  55 VRB3      29.90S
KINGMAN, AZ    CLEAR     33   1  25 S9        29.98R WCI  25
FLAGSTAFF, AZ  CLEAR     23   5  46 W7        29.90S WCI  15

$$

REGIONAL REPORTS    NEVADA/IDAHO/WYOMING

CITY           SKY/WX    TMP DP  RH WIND       PRES   REMARKS
LAS VEGAS, NV  PTCLDY    48   6  18 NW8       29.99R
ELY, NY        PTCLDY     6   2  83 S7        29.92R WCI  -6
ELKO, NV       MOCLDY    21  15  78 SW7       29.98R WCI  12
POCATELLO, ID  LGT SNOW  23  20  88 S16       29.87S FOG     WCI  10
BURLEY, ID     FLURRIES  27  19  72 W23G29    29.89R WCI  12
FORT BRIDGER,  LGT SNOW  19  19 100 SW8       29.80S WCI   8
EVANSTON, WY   LGT SNOW  17  12  80 W8        29.77S WCI   7
ROCK SPRINGS,  LGT SNOW  17  13  84 N7        29.77R FOG     WCI   8

$$




USA.gov is the U.S. government's official web portal to all federal, state and local government web resources and services.